Location: Rounton
(54.4000°N, 1.3500°W)
Time: 22:42:36
(UTC+00:00)

Vanguard 3 - Pass Details

Date: 01 December 2021
Orbit: 508 x 3260 km, 33.3° (Epoch: 17 January)

Event Time Altitude Azimuth Distance (km) Brightness Sun altitude
Rises 10:19:55 0° 265° (W) 6,229 11.5 11.1°
Reaches altitude 10° 10:28:59 10° 236° (WSW) 4,370 11.1 11.5°
Maximum altitude 10:31:20 11° 224° (SW) 4,050 11.1 11.7°
Drops below altitude 10° 10:33:30 10° 212° (SSW) 3,875 11.3 11.8°
Sets 10:39:30 0° 178° (S) 4,139 12.4 12.0°
